Flag for Greece Weather past 2 weeks in Santorini, Greece

Now
81 °F

Clear.


Feels Like: 82 °F
Forecast: 79 / 84 °F
Wind: 2 mph from North

Location: Santorini Island

Current Time: Aug 21, 2014 at 11:43:42 PM

Latest Report: Aug 21, 2014 at 10:50 PM


Visibility: 10 mi

Pressure: 29.95 "Hg

Humidity: 58%

Dew point: 64 °F

Location of SantoriniLocation

Historic Weather in Santorini — Graph

°F

Santorini temperature yesterday

Maximum temperature yesterday: 84 °F (at 2:20 PM)
Minimum temperature yesterday: 73 °F (at 6:20 AM)
Average temperature yesterday: 79 °F

Past Weeks' High & Low Weather Summary

 TemperatureHumidityPressure
High91 °F (Aug 16, 4:20 PM)94% (Aug 7, 5:20 AM)29.98 "Hg (Aug 7, 5:20 AM)
Low72 °F (Aug 8, 4:50 AM)27% (Aug 21, 12:20 PM)29.65 "Hg (Aug 6, 11:50 PM)
Average81 °F62%29.82 "Hg
* Reported Aug 6 10:20 PM — Aug 21 10:50 PM, Santorini, Weather by CustomWeather, © 2014

Note: Actual official high and low records may vary slightly from our data, if they occured in-between our weather recording intervals... More about our weather records

Advertising

Santorini weather history for previous 24 hours

 ConditionsComfort  
Time TempWeatherWind HumidityBarometerVisibility
10:50 PM
Aug 21
81 °FClear.2 mph58%29.95 "Hg10 mi
10:20 PM81 °FPassing clouds.6 mph58%29.95 "HgN/A
9:50 PM81 °FPassing clouds.5 mph58%29.95 "HgN/A
9:20 PM79 °FClear.2 mph70%29.95 "Hg10 mi
8:50 PM79 °FSunny.2 mph70%29.92 "Hg10 mi
8:20 PM81 °FSunny.2 mph66%29.92 "Hg10 mi
7:50 PM82 °FSunny.2 mph58%29.92 "Hg10 mi
7:20 PM84 °FSunny.3 mph51%29.92 "Hg10 mi
6:50 PM86 °FSunny.7 mph43%29.92 "Hg10 mi
6:20 PM88 °FSunny.12 mph35%29.92 "Hg10 mi
5:50 PM88 °FSunny.13 mph40%29.95 "Hg10 mi
5:20 PM88 °FSunny.10 mph40%29.95 "Hg10 mi
4:50 PM88 °FSunny.13 mph35%29.95 "Hg10 mi
4:20 PM88 °FSunny.13 mph31%29.95 "Hg10 mi
3:50 PM90 °FSunny.13 mph29%29.95 "Hg10 mi
3:20 PM88 °FSunny.13 mph38%29.98 "Hg10 mi
2:50 PM88 °FSunny.12 mph31%29.95 "Hg10 mi
2:20 PM88 °FSunny.12 mph35%29.98 "Hg10 mi
1:50 PM88 °FSunny.12 mph38%29.98 "Hg10 mi
1:20 PM88 °FSunny.12 mph35%29.98 "Hg10 mi
12:50 PM88 °FSunny.13 mph29%29.98 "Hg10 mi
12:20 PM88 °FSunny.12 mph27%29.98 "Hg10 mi
11:50 AM88 °FSunny.12 mph31%29.98 "Hg10 mi
11:20 AM88 °FSunny.10 mph29%29.95 "Hg10 mi
10:50 AM88 °FSunny.10 mph29%29.95 "Hg10 mi
10:20 AM86 °FSunny.10 mph33%29.95 "Hg10 mi
9:50 AM86 °FSunny.9 mph33%29.95 "Hg10 mi
9:20 AM86 °FSunny.7 mph31%29.95 "Hg10 mi
8:50 AM84 °FSunny.8 mph35%29.95 "Hg10 mi
8:20 AM82 °FSunny.8 mph45%29.95 "Hg10 mi
7:50 AM79 °FSunny.7 mph51%29.95 "Hg10 mi
7:20 AM77 °FClear.10 mph51%29.95 "Hg10 mi
6:50 AM75 °FClear.8 mph57%29.95 "Hg10 mi
6:20 AM77 °FClear.8 mph51%29.95 "Hg10 mi
5:50 AM77 °FClear.10 mph54%29.95 "Hg10 mi
5:20 AM75 °FClear.8 mph57%29.92 "Hg10 mi
4:50 AM75 °FClear.10 mph65%29.95 "Hg10 mi
4:20 AM75 °FClear.9 mph65%29.95 "Hg10 mi
3:50 AM77 °FWarm.9 mph57%29.95 "HgN/A
3:20 AM77 °FClear.12 mph57%29.95 "Hg10 mi
2:50 AM77 °FClear.12 mph61%29.95 "Hg10 mi
2:20 AM77 °FPassing clouds.12 mph65%29.95 "HgN/A
1:50 AM77 °FPassing clouds.12 mph65%29.95 "HgN/A
1:20 AM77 °FClear.10 mph74%29.98 "Hg10 mi
12:50 AM75 °FClear.10 mph69%29.95 "Hg10 mi
12:20 AM75 °FClear.12 mph69%29.95 "Hg10 mi
11:50 PM
Aug 20
77 °FPassing clouds.8 mph65%29.95 "HgN/A
11:20 PM75 °FPassing clouds.7 mph74%29.98 "HgN/A
Weather by CustomWeather, © 2014

See weather overviewHow to use our weather pages